Regional Weather Roundup
Issued by NWS Upton, NY

Current Version | Previous Version | Text Only | Print | Product List | Glossary On
Versions: 1 2 3 4 5 6 7 8 9 10 11 12 13 14 15 16 17 18 19 20 21 22 23 24 25 26 27
000
ASUS41 KOKX 200405
RWROKX

Regional Weather Roundup
National Weather Service New York NY
1200 AM EDT FRI APR 20 2018

Note: "FAIR" indicates few or no clouds below 12,000 feet with no
significant weather and/or obstructions to visibility.

NYZ071-072-176-178-NJZ106-104-200500-
New York City Metro Area

CITY           SKY/WX    TMP DP  RH WIND       PRES   REMARKS
Central Park   FAIR      39  24  55 NW8       30.03R WCI  33
Bronx Bot Gard   N/A     37  25  60 NW2       30.03
Bronx Lehman C   N/A     37  25  60 NW10        N/A  WCI  30
LaGuardia Arpt FAIR      40  25  55 NW20G26   30.01R WCI  30
Queens College   N/A     39  25  56 W15         N/A  WCI  31
Kennedy Intl   FAIR      39  24  55 NW22G29   30.02R WCI  29
Breezy Point     N/A     37 N/A N/A NW12G21     N/A  WCI  30
Brooklyn Coll    N/A     39  25  56 W12         N/A  WCI  32
Staten Island    N/A     37  25  60 NW14        N/A  WCI  29
Newark/Liberty FAIR      39  25  57 W10       30.03R WCI  32
Teterboro      FAIR      38  24  57 NW17G26   30.01R WCI  28
$$

NYZ177-179-078>081-200500-
Long Island New York

CITY           SKY/WX    TMP DP  RH WIND       PRES   REMARKS
Jones Beach      N/A     39 N/A N/A NW26G32     N/A  WCI  28
Wantagh          N/A     39  27  60 W16         N/A  WCI  30
Hempstead        N/A     39  28  65 NW10      30.03  WCI  32
Matinecock Pt    N/A     39 N/A N/A W25G31      N/A  WCI  28
Farmingdale    FAIR      38  25  59 NW14G24   29.99R WCI  30
MacArthur/ISP  FAIR      38  26  62 W16G24    29.96R WCI  29
Stony Brook      N/A     39  28  65 NW12G23     N/A  WCI  32
Shirley        FAIR      39  28  64 W12       29.96R WCI  32
Mt Sinai Harb    N/A    N/A N/A N/A W13G22      N/A
Westhampton    FAIR      35  26  69 W6        29.96R WCI  30
East Hampton   CLOUDY    38  27  62 NW10G22   29.93R WCI  32
Southold         N/A     39  28  65 NW14        N/A  WCI  31
Montauk          N/A     41  30  65 NW15G24   29.92R
$$

NYZ052-065-067-200500-
Hudson Valley

CITY           SKY/WX    TMP DP  RH WIND       PRES   REMARKS
White Plains   FAIR      36  25  64 W17G25    29.97R WCI  26
Larchmont Harb   N/A     37 N/A N/A W14G20      N/A  WCI  29
Croton On Huds   N/A     39 N/A N/A SW17        N/A  WCI  30
Somers           N/A     34  25  69 W6          N/A  WCI  29
Brewster         N/A     36  27  69 NW9         N/A  WCI  29
Newburgh       MOCLDY    36  25  64 NW14      29.99R WCI  27
Montgomery     CLOUDY    37  22  54 NW15G23   29.99R WCI  28
Otisville        N/A     34  27  75 NW8         N/A  WCI  27
Warwick          N/A     34  25  69 W9          N/A  WCI  26
Suffern          N/A     34  25  69 NW10        N/A  WCI  26
Poughkeepsie   FAIR      37  24  59 NW8       29.98R WCI  31
Albany         CLOUDY    35  23  61 NW17      29.96R WCI  25
$$

NJZ001-105-106-008-010-013-015-019>022-104-200500-
New Jersey

CITY           SKY/WX    TMP DP  RH WIND       PRES   REMARKS
Newark/Liberty FAIR      39  25  57 W10       30.03R WCI  32
Teterboro      FAIR      38  24  57 NW17G26   30.01R WCI  28
Caldwell       FAIR      37  22  54 NW9       30.03R WCI  30
Somerville     MOCLDY    38  26  62 NW7       30.03R WCI  33
Linden         FAIR      38  25  60 NW10      30.04R WCI  30
Perth Amboy      N/A     39 N/A N/A NW18        N/A  WCI  30
Sussex         MOCLDY    36  23  59 VRB7      30.01S WCI  30
Andover          N/A     35  23  61 VRB6      30.02S WCI  30
Trenton        LGT RAIN  39  28  64 N13G26    30.06R WCI  31
Millville      FAIR      41  23  48 W12       30.09R
Atlantic City  FAIR      40  26  57 W8        30.07R WCI  34
Wrightstown    CLOUDY    40  26  55 NW10      30.02S WCI  34
Toms River     CLOUDY    38  26  62 NW7       30.05S WCI  33
Belmar         FAIR      39  25  57 NW17G24   30.04S WCI  30
$$

PAZ047>061-062-071-200500-
Eastern Pennsylvania

CITY           SKY/WX    TMP DP  RH WIND       PRES   REMARKS
Philadelphia   FAIR      41  23  48 W13       30.09R
Allentown      CLOUDY    38  26  62 NW8G18    30.06R WCI  32
Scranton       MOCLDY    33  25  72 NW12      30.05R WCI  24
$$

CTZ002-004>006-009-010-012-RIZ004-006-007-MAZ004-011-015-200500-
Southern New England

 In CT

CITY           SKY/WX    TMP DP  RH WIND       PRES   REMARKS
Bradley Intl   CLOUDY    37  27  67 NW18      29.91R WCI  27
Hartford       CLOUDY    39  26  59 NW12G18   29.93R WCI  32
Danbury        FAIR      36  24  62 W8        29.96R WCI  30
Wtrbury/Oxford FAIR      34  25  69 NW9G16    29.93R WCI  27
Norwalk Harbor   N/A     37 N/A N/A W14         N/A  WCI  29
Bridgeport     MOCLDY    39  25  57 W14       29.96R WCI  31
Meriden        MOCLDY    37  25  61 NW12      29.94R WCI  29
New Haven      CLOUDY    40  26  57 NW8       29.95R WCI  34
Chester        FAIR      37  25  60 NW14G25   29.90S WCI  29
Groton         CLOUDY    38  29  70 NW12G21   29.90R WCI  30
Willimantic    FAIR      37  29  72 W6        29.90R WCI  32

 In RI

CITY           SKY/WX    TMP DP  RH WIND       PRES   REMARKS
Providence     CLOUDY    39  33  79 NW12G22   29.86R WCI  32
Block Island   CLOUDY    39  30  70 NW14G24   29.89R WCI  31
Westerly       CLOUDY    40  30  67 NW8       29.89R WCI  34

In MA

CITY           SKY/WX    TMP DP  RH WIND       PRES   REMARKS
Boston         CLOUDY    40  30  67 NW13      29.83R WCI  32
Worcester      CLOUDY    33  28  81 W17       29.83R WCI  22
Westfield      CLOUDY    37  27  67 NW15      29.90R WCI  28
Provincetown   LGT RAIN  40  36  86 NW13      29.81R WCI  32
Nantucket      LGT RAIN  40  39  97 W10       29.81R WCI  33
$$

ANZ330-335-338-340-345-350-353-355-200500-
Coastal Marine Observations


STATION/POSITION TIME  SKY/WX   TEMP    WIND        PRES    VSBY  WAVE
                                AIR SEA DIR/SP/G                  HT/PER
                 (UTC)          (F)     (DEG/KT/KT) (MB)    (MI)  (FT/S)
NY Harb Entrance 0350            41 44  300/ 23/ 27 1016.4          4/ 4
20 S Fire Island 0350            42 42  300/ 23/ 29 1014.7          7/ 6
23 SSW Montauk P 0350            41 42  290/ 21/ 27 1012.9          4/ 5
15 E Barnegat Li 0330               44                N/A           6/ 5
Hudson Canyon    0350            44 45  320/ 25/ 31 1014.4          7/ 5
Kings Point      0342            40 44  350/ 17/ 21 1017.0
Execution Rocks  NOT AVBL
Western LI Sound NOT AVBL
Central LI Sound 0330            41     310/ 16/ 19   N/A           2
Robbins Reef     0348            40     310/ 16/ 22 1017.0
$$


>>>>>>>>>>>>>>>>>>>>>>>>>>>> KEY <<<<<<<<<<<<<<<<<<<<<<<<<<<
>                                                          <
>     SKY/WX - Sky Condition/Present Weather               <
>     TMP    - Temperature in Fahrenheit                   <
>     DP     - Dew Point in Fahrenheit                     <
>     RH     - Relative Humidity in Percent                <
>     WIND   - Direction (from) and Speed in MPH           <
>     PRES   - Mean Sea Level Pressure (inches of Hg)      <
>     WCI    - Wind Chill Index                            <
>     VSB    - Visibility in Miles                         <
>     HX     - Heat Index                                  <
>     TC     - Temperature in Celsius                      <
>     VRB    - Varibale Wind Direction                     <
>                                                          <
>>>>>>>>>>>>>>>>>>>>>>>>>>>> KEY <<<<<<<<<<<<<<<<<<<<<<<<<<<




USA.gov is the U.S. government's official web portal to all federal, state and local government web resources and services.